Gadsden, AL

3:43 PM CST on December 05, 2019 (GMT -0600)
Gadsden Municipal

Weather History for KGAD - June, 2019

Change the Weather History Date:

Monday, June 10, 2019

  Actual Average Record
Temperature  
Mean Temperature 78 °F -  
Max Temperature 88 °F 82 °F 95 °F (1941)
Min Temperature 69 °F 62 °F 49 °F (1930)
Cooling Degree Days 14    
Growing Degree Days 28 (Base 50)    
Moisture  
Dew Point 71 °F    
Average Humidity 73    
Maximum Humidity 93    
Minimum Humidity 55    
Precipitation  
Precipitation 0.00 in - - ()
Sea Level Pressure  
Sea Level Pressure 29.98 in    
Wind  
Wind Speed 4 mph ()    
Max Wind Speed 17 mph    
Max Gust Speed 22 mph    
Visibility 9.2 miles    
Events      
Averages and records for this station are not official NWS values.
T = Trace of Precipitation, MM = Missing Value Source: Averaged Metar Reports

Daily Weather History Graph

Daily Weather History Graph

Search for Another Location

Airport or City:

Astronomy

Jun. 10, 2019 Rise Set
Actual Time 5:32 AM CDT 7:55 PM CDT
Civil Twilight 5:03 AM CDT 8:24 PM CDT
Nautical Twilight 4:27 AM CDT 8:59 PM CDT
Astronomical Twilight 3:48 AM CDT 9:38 PM CDT
Moon 1:07 PM CDT (6/10) 1:20 AM CDT (6/10)
Length of Visible Light 15h 20m
Length of Day
14h 22m
First Quarter, 55% of the Moon is Illuminated
Jun 10
First Quarter
Jun 17
Full
Jun 25
Last Quarter
Jul 2
New
Jul 9
First Quarter

Hourly Weather History & Observations

Time (CDT) Temp. Heat Index Dew Point Humidity Pressure Visibility Wind Dir Wind Speed Gust Speed Precip Events Conditions
12:56 AM 72.0 °F - - N/A% 29.91 in 10.0 mi Calm Calm - N/A   Partly Cloudy
1:56 AM 70.0 °F - - N/A% 29.92 in 10.0 mi NW 3.5 mph - N/A   Partly Cloudy
2:56 AM 70.0 °F - - N/A% 29.92 in 10.0 mi Calm Calm - N/A   Clear
3:19 AM 69.8 °F - - N/A% 29.93 in 9.0 mi Calm Calm - N/A   Partly Cloudy
3:36 AM 69.8 °F - - N/A% 29.93 in 1.8 mi Calm Calm - N/A   Scattered Clouds
3:41 AM 69.8 °F - - N/A% 29.93 in 2.5 mi Calm Calm - N/A   Mostly Cloudy
3:49 AM 69.8 °F - - N/A% 29.93 in 9.0 mi Calm Calm - N/A   Mostly Cloudy
3:56 AM 69.1 °F - - N/A% 29.93 in 9.0 mi Calm Calm - N/A   Mostly Cloudy
4:56 AM 70.0 °F - - N/A% 29.95 in 9.0 mi Calm Calm - N/A   Overcast
5:56 AM 71.1 °F - - N/A% 29.96 in 10.0 mi WNW 4.6 mph - N/A   Overcast
6:05 AM 71.6 °F - - N/A% 29.96 in 10.0 mi WNW 3.5 mph - N/A   Overcast
6:37 AM 71.6 °F - - N/A% 29.97 in 10.0 mi Calm Calm - N/A   Scattered Clouds
6:56 AM 72.0 °F - - N/A% 29.97 in 10.0 mi Calm Calm - N/A   Scattered Clouds
7:06 AM 71.6 °F - - N/A% 29.98 in 10.0 mi Calm Calm - N/A   Mostly Cloudy
7:49 AM 73.4 °F - - N/A% 29.99 in 10.0 mi North 3.5 mph - N/A   Overcast
7:56 AM 73.9 °F - - N/A% 29.99 in 10.0 mi NNW 4.6 mph - N/A   Overcast
8:52 AM 78.8 °F - 75.2 °F 89% 30.00 in 10.0 mi NNE 5.8 mph - N/A   Overcast
8:56 AM 78.1 °F - 75.9 °F 93% 30.00 in 10.0 mi NNE 5.8 mph - N/A   Overcast
9:56 AM 80.1 °F 85.1 °F 75.0 °F 85% 30.01 in 10.0 mi Variable 5.8 mph - N/A   Overcast
10:13 AM 80.6 °F 86.2 °F 75.2 °F 84% 30.02 in 10.0 mi NNW 10.4 mph - N/A   Overcast
10:56 AM 81.0 °F 86.2 °F 73.9 °F 79% 30.01 in 10.0 mi NNW 5.8 mph 16.1 mph N/A   Scattered Clouds
11:56 AM 84.9 °F 93.3 °F 75.0 °F 72% 29.99 in 10.0 mi North 6.9 mph - N/A   Scattered Clouds
12:56 PM 84.9 °F 92.1 °F 73.9 °F 69% 29.98 in 10.0 mi NNW 10.4 mph - N/A   Mostly Cloudy
1:56 PM 84.9 °F 90.7 °F 72.0 °F 65% 29.99 in 10.0 mi North 13.8 mph 21.9 mph 0.00 in   Partly Cloudy
2:56 PM 87.1 °F 93.6 °F 72.0 °F 61% 29.96 in 10.0 mi NNW 17.3 mph - N/A   Partly Cloudy
3:56 PM 88.0 °F 92.9 °F 70.0 °F 55% 29.96 in 10.0 mi NNW 16.1 mph 21.9 mph N/A   Partly Cloudy
4:56 PM 87.1 °F 92.0 °F 70.0 °F 57% 29.96 in 10.0 mi NNW 10.4 mph - N/A   Clear
5:56 PM 84.0 °F 87.0 °F 68.0 °F 58% 29.97 in 10.0 mi North 13.8 mph - N/A   Clear
6:56 PM 81.0 °F 84.1 °F 69.1 °F 67% 29.99 in 10.0 mi NNW 8.1 mph 17.3 mph N/A   Partly Cloudy
7:56 PM 79.0 °F - 68.0 °F 69% 30.00 in 10.0 mi North 12.7 mph 19.6 mph N/A   Clear
8:56 PM 75.9 °F - 68.0 °F 76% 30.04 in 10.0 mi North 3.5 mph - N/A   Clear
9:36 PM 75.2 °F - 68.0 °F 78% 30.07 in 2.5 mi North 6.9 mph - N/A   Haze
9:43 PM 75.2 °F - 68.0 °F 78% 30.07 in 10.0 mi North 9.2 mph - N/A   Partly Cloudy
9:56 PM 75.0 °F - 68.0 °F 79% 30.07 in 10.0 mi North 10.4 mph - N/A   Scattered Clouds
11:56 PM 71.1 °F - 62.1 °F 73% 30.08 in 10.0 mi NNW 10.4 mph 17.3 mph N/A   Clear